QPF
0.00 0.00 0.00 0.00 0.00 0.00 0.00 0.00 0.00 0.00 0.00 0.00 0.00 0.00 0.00 0.00 0.00 0.00 0.00 0.00 0.00 0.00 0.00 0.02 0.05 0.07 0.05 0.04 0.02 0.01 0.06 0.08
0.00 0.00 0.00 0.00 0.00 0.00 0.00 0.00 0.00 0.00 0.00 0.00 0.00 0.00 0.00 0.00 0.00 0.00 0.00 0.00 0.00 0.00 0.00 0.00 0.01 0.04 0.05 0.03 0.04 0.05 0.06 0.11
0.00 0.00 0.00 0.00 0.00 0.00 0.00 0.00 0.00 0.00 0.00 0.00 0.00 0.00 0.00 0.00 0.00 0.00 0.00 0.00 0.00 0.00 0.00 0.00 0.00 0.01 0.03 0.03 0.04 0.08 0.07 0.10
0.00 0.00 0.00 0.00 0.00 0.00 0.00 0.00 0.00 0.00 0.00 0.00 0.00 0.00 0.00 0.00 0.00 0.00 0.00 0.00 0.00 0.00 0.00 0.00 0.00 0.00 0.01 0.03 0.04 0.06 0.09 0.10
0.00 0.00 0.00 0.00 0.00 0.00 0.00 0.00 0.00 0.00 0.00 0.00 0.00 0.00 0.00 0.00 0.00 0.00 0.00 0.00 0.00 0.00 0.00 0.00 0.00 0.00 0.00 0.00 0.03 0.07 0.09 0.13
0.00 0.00 0.00 0.00 0.00 0.00 0.00 0.00 0.00 0.00 0.00 0.00 0.00 0.00 0.00 0.00 0.00 0.00 0.00 0.00 0.00 0.00 0.00 0.00 0.00 0.00 0.00 0.00 0.00 0.04 0.08 0.14
0.00 0.00 0.00 0.00 0.00 0.00 0.00 0.00 0.00 0.00 0.00 0.00 0.00 0.00 0.00 0.00 0.00 0.00 0.00 0.00 0.00 0.00 0.00 0.00 0.00 0.00 0.00 0.00 0.00 0.01 0.05 0.10
0.00 0.00 0.00 0.00 0.00 0.00 0.00 0.00 0.00 0.00 0.00 0.00 0.00 0.00 0.00 0.00 0.00 0.00 0.00 0.00 0.00 0.00 0.00 0.00 0.00 0.00 0.00 0.00 0.00 0.00 0.00 0.02
0.00 0.00 0.00 0.00 0.00 0.00 0.00 0.00 0.00 0.00 0.00 0.00 0.00 0.00 0.00 0.00 0.00 0.00 0.00 0.00 0.00 0.00 0.00 0.00 0.00 0.00 0.00 0.00 0.00 0.00 0.00 0.00
0.00 0.00 0.00 0.00 0.00 0.00 0.00 0.00 0.00 0.00 0.00 0.00 0.00 0.00 0.00 0.00 0.00 0.00 0.00 0.00 0.00 0.00 0.00 0.00 0.00 0.00 0.00 0.00 0.00 0.00 0.00 0.00
0.00 0.00 0.00 0.00 0.00 0.00 0.00 0.00 0.00 0.00 0.00 0.00 0.00 0.00 0.00 0.00 0.00 0.00 0.00 0.00 0.00 0.00 0.00 0.00 0.00 0.00 0.00 0.00 0.00 0.00 0.00 0.00
0.00 0.00 0.00 0.00 0.00 0.00 0.00 0.00 0.00 0.00 0.00 0.00 0.00 0.00 0.00 0.00 0.00 0.00 0.00 0.01 0.01 0.01 0.01 0.00 0.00 0.00 0.00 0.00 0.00 0.00 0.00 0.00
0.00 0.00 0.00 0.00 0.00 0.00 0.00 0.00 0.00 0.00 0.00 0.00 0.00 0.00 0.00 0.00 0.00 0.00 0.01 0.02 0.02 0.02 0.00 0.00 0.00 0.00 0.00 0.00 0.00 0.00 0.00 0.00
0.00 0.00 0.00 0.00 0.00 0.00 0.00 0.00 0.00 0.00 0.00 0.00 0.00 0.00 0.00 0.00 0.00 0.01 0.02 0.02 0.02 0.02 0.01 0.01 0.00 0.00 0.01 0.00 0.00 0.00 0.00 0.00
0.00 0.00 0.00 0.00 0.00 0.00 0.00 0.00 0.00 0.00 0.00 0.00 0.00 0.00 0.00 0.00 0.00 0.01 0.01 0.02 0.03 0.02 0.01 0.01 0.01 0.00 0.00 0.02 0.01 0.00 0.00 0.00
0.00 0.00 0.00 0.00 0.00 0.00 0.00 0.00 0.00 0.00 0.00 0.00 0.00 0.00 0.00 0.00 0.00 0.01 0.01 0.03 0.03 0.01 0.00 0.01 0.01 0.01 0.00 0.01 0.01 0.01 0.01 0.00
0.00 0.00 0.00 0.00 0.00 0.00 0.00 0.00 0.00 0.00 0.00 0.00 0.00 0.00 0.00 0.00 0.00 0.00 0.01 0.02 0.01 0.00 0.00 0.01 0.01 0.01 0.01 0.01 0.01 0.00 0.00 0.01
0.00 0.00 0.00 0.00 0.00 0.00 0.00 0.00 0.00 0.00 0.00 0.00 0.00 0.00 0.00 0.00 0.00 0.00 0.01 0.01 0.01 0.01 0.01 0.01 0.01 0.01 0.01 0.01 0.01 0.01 0.01 0.00
0.00 0.00 0.00 0.00 0.00 0.00 0.00 0.00 0.00 0.00 0.00 0.00 0.00 0.00 0.00 0.00 0.00 0.01 0.01 0.01 0.01 0.01 0.01 0.01 0.01 0.01 0.01 0.01 0.01 0.01 0.01 0.01
0.00 0.00 0.00 0.00 0.00 0.00 0.00 0.00 0.00 0.00 0.00 0.00 0.00 0.00 0.00 0.00 0.00 0.00 0.00 0.01 0.01 0.01 0.02 0.01 0.01 0.01 0.01 0.01 0.01 0.01 0.01 0.01
MSLP
1025.47 1025.11 1024.83 1024.40 1024.20 1024.26 1024.09 1023.72 1023.23 1022.72 1022.23 1021.83 1021.35 1020.45 1019.97 1019.41 1018.97 1018.58 1018.24 1017.69 1017.25 1016.89 1016.37 1015.68 1015.17 1014.52 1013.99 1013.49 1013.02 1012.45 1012.36 1010.43
1025.44 1025.22 1024.96 1024.56 1023.87 1023.86 1023.66 1023.31 1022.96 1022.54 1022.16 1021.86 1021.36 1020.40 1019.91 1019.46 1018.90 1018.69 1018.27 1017.52 1017.10 1016.56 1016.26 1015.75 1015.02 1014.47 1014.09 1013.55 1012.88 1012.14 1011.35 1010.58
1025.09 1025.26 1025.11 1024.75 1023.82 1023.66 1023.30 1022.99 1022.78 1022.54 1022.34 1022.23 1021.48 1020.72 1019.98 1019.57 1018.98 1018.77 1018.18 1017.49 1017.05 1016.28 1015.95 1015.65 1014.67 1013.65 1013.61 1013.49 1012.97 1012.04 1011.89 1010.67
1024.65 1025.10 1025.10 1024.78 1024.06 1023.80 1023.31 1022.96 1022.78 1022.69 1022.59 1022.58 1022.05 1021.33 1020.24 1019.72 1018.96 1018.56 1017.91 1017.34 1016.89 1016.33 1015.66 1015.34 1014.33 1013.79 1013.00 1013.01 1013.13 1012.21 1011.57 1011.29
1024.69 1024.87 1025.23 1025.06 1024.62 1023.98 1023.55 1023.11 1022.95 1022.83 1022.76 1022.79 1022.38 1021.60 1020.72 1019.91 1019.17 1018.58 1018.04 1017.43 1017.06 1016.62 1015.83 1015.44 1015.26 1014.57 1013.78 1013.09 1012.88 1012.74 1010.88 1011.39
1024.81 1024.93 1025.27 1025.16 1024.79 1024.19 1023.93 1023.35 1023.19 1023.01 1022.79 1022.70 1022.66 1021.88 1021.17 1020.49 1019.60 1018.87 1018.38 1018.04 1017.82 1017.32 1016.70 1016.35 1015.59 1014.79 1013.87 1013.12 1012.57 1012.41 1012.11 1010.69
1024.99 1025.18 1025.38 1025.28 1024.91 1024.68 1024.26 1023.61 1023.48 1023.13 1022.68 1022.58 1022.67 1022.35 1021.55 1020.83 1020.04 1019.15 1018.66 1018.31 1017.99 1017.70 1017.15 1016.50 1015.78 1014.57 1013.60 1012.71 1012.13 1011.75 1011.82 1011.01
1024.98 1025.23 1025.20 1025.35 1025.12 1024.95 1024.32 1023.74 1023.64 1022.85 1022.71 1022.72 1022.59 1022.63 1021.79 1021.11 1020.24 1019.36 1018.65 1018.70 1018.54 1017.84 1017.49 1016.79 1015.84 1014.82 1013.56 1012.31 1011.42 1011.63 1011.24 1010.99
1024.93 1024.99 1025.21 1025.50 1025.22 1025.01 1024.35 1023.80 1023.62 1022.82 1022.64 1022.47 1022.60 1022.64 1022.02 1021.52 1020.34 1019.41 1018.79 1019.28 1018.96 1018.37 1017.84 1016.97 1015.95 1014.80 1013.42 1011.91 1010.87 1010.86 1010.74 1010.91
1024.92 1025.16 1025.39 1025.62 1025.27 1024.82 1024.45 1024.01 1023.70 1022.88 1022.85 1022.48 1022.70 1022.70 1022.33 1021.53 1020.44 1019.63 1019.88 1019.86 1019.24 1018.58 1017.67 1016.84 1015.91 1014.54 1012.83 1011.72 1010.91 1010.61 1010.02 1009.87
1025.02 1025.27 1025.49 1025.72 1025.14 1024.76 1024.33 1024.02 1023.67 1023.23 1022.86 1022.66 1023.02 1022.79 1022.38 1021.77 1020.92 1020.86 1020.92 1019.94 1018.93 1018.22 1017.71 1017.17 1016.14 1014.80 1013.67 1012.91 1011.97 1010.62 1009.31 1008.68
1025.18 1025.36 1025.68 1025.57 1025.03 1024.78 1024.35 1023.97 1023.67 1023.53 1023.16 1023.20 1023.31 1022.87 1022.64 1022.86 1022.17 1021.84 1021.39 1020.13 1019.19 1018.71 1018.00 1017.51 1016.58 1015.51 1014.75 1013.12 1011.13 1009.60 1008.30 1007.92
1025.31 1025.48 1025.59 1025.49 1025.19 1024.95 1024.63 1024.28 1023.83 1023.72 1023.57 1023.57 1023.35 1023.04 1023.44 1023.47 1023.12 1022.37 1021.47 1020.56 1019.52 1018.79 1018.40 1017.72 1016.86 1016.46 1014.92 1012.55 1009.56 1007.02 1007.39 1007.26
1025.41 1025.50 1025.54 1025.68 1025.64 1025.45 1025.34 1024.85 1024.24 1024.05 1023.91 1023.65 1023.39 1023.30 1023.89 1023.68 1023.49 1022.45 1021.54 1020.79 1020.02 1019.24 1018.87 1018.09 1017.31 1016.75 1015.45 1013.09 1010.29 1007.61 1007.31 1006.84
1025.47 1025.58 1025.73 1025.95 1026.15 1025.75 1025.76 1025.21 1024.72 1024.43 1024.19 1023.71 1023.48 1023.47 1023.96 1023.96 1023.70 1023.33 1022.44 1021.28 1020.44 1019.57 1019.19 1018.61 1017.66 1016.79 1016.08 1014.88 1012.91 1011.46 1010.42 1007.08
1025.60 1025.77 1025.88 1026.09 1026.23 1026.14 1026.13 1025.65 1025.24 1025.03 1024.57 1024.12 1023.62 1023.79 1024.25 1024.34 1024.19 1023.73 1022.64 1021.64 1020.77 1020.21 1019.64 1018.87 1018.06 1016.99 1016.04 1015.38 1014.59 1013.58 1012.03 1009.63
1025.64 1025.73 1025.91 1026.36 1026.60 1026.44 1026.33 1026.18 1025.97 1025.52 1025.05 1024.40 1024.00 1024.48 1024.78 1024.70 1024.48 1023.76 1022.90 1022.08 1021.18 1020.48 1019.59 1018.72 1017.99 1017.27 1016.37 1015.39 1014.53 1013.77 1013.18 1012.23
1025.71 1025.73 1025.77 1026.27 1026.64 1026.69 1026.60 1026.59 1026.35 1025.88 1025.42 1024.75 1024.87 1025.37 1025.29 1024.89 1024.62 1023.96 1022.97 1022.15 1021.26 1020.38 1019.58 1018.74 1018.09 1017.51 1016.79 1016.06 1015.22 1014.47 1013.84 1013.20
1025.74 1025.79 1025.89 1026.37 1026.75 1026.86 1026.83 1026.85 1026.64 1026.22 1025.76 1025.33 1025.56 1025.74 1025.58 1025.20 1024.78 1024.09 1023.23 1022.37 1021.36 1020.38 1019.59 1018.91 1018.30 1017.70 1017.28 1016.56 1015.78 1015.28 1014.84 1014.08
1026.05 1026.09 1026.30 1026.69 1026.96 1027.07 1027.11 1027.12 1026.97 1026.62 1026.27 1025.95 1026.19 1026.19 1025.97 1025.64 1025.25 1024.37 1023.34 1022.54 1021.59 1020.66 1019.86 1019.20 1018.68 1018.07 1017.56 1016.94 1016.32 1015.69 1015.14 1014.77
Thickness
5585 5584 5582 5581 5578 5574 5571 5570 5570 5569 5569 5568 5568 5571 5571 5573 5574 5575 5575 5578 5579 5581 5587 5595 5601 5609 5615 5624 5632 5641 5646 5665
5581 5578 5576 5574 5574 5570 5567 5564 5562 5561 5560 5559 5559 5562 5563 5563 5566 5564 5565 5569 5571 5573 5574 5581 5588 5595 5603 5611 5622 5632 5643 5652
5577 5572 5568 5566 5567 5563 5561 5560 5557 5555 5553 5550 5551 5552 5554 5552 5553 5552 5555 5558 5559 5564 5565 5567 5578 5586 5590 5598 5608 5621 5628 5642
5575 5568 5563 5560 5560 5558 5557 5555 5553 5549 5545 5541 5540 5540 5542 5540 5541 5540 5541 5544 5546 5549 5554 5557 5566 5573 5579 5586 5592 5606 5619 5628
5570 5564 5557 5553 5551 5551 5550 5549 5546 5541 5536 5529 5526 5525 5524 5524 5524 5524 5526 5528 5528 5531 5538 5539 5544 5552 5560 5568 5578 5587 5611 5616
5565 5559 5552 5548 5545 5545 5542 5541 5536 5530 5524 5517 5509 5507 5505 5504 5503 5503 5504 5505 5505 5508 5514 5517 5524 5533 5544 5554 5564 5572 5586 5609
5558 5552 5545 5541 5539 5536 5533 5530 5524 5518 5513 5504 5494 5487 5484 5482 5482 5482 5481 5482 5482 5484 5489 5496 5503 5515 5529 5542 5551 5563 5575 5591
5554 5547 5542 5536 5533 5528 5525 5521 5513 5509 5499 5488 5478 5466 5464 5460 5459 5459 5458 5454 5452 5457 5460 5468 5480 5490 5507 5527 5541 5547 5564 5576
5549 5544 5538 5531 5527 5520 5517 5511 5502 5496 5485 5475 5461 5450 5444 5436 5434 5431 5428 5416 5413 5416 5422 5434 5448 5462 5481 5508 5528 5537 5552 5563
5546 5539 5533 5525 5520 5515 5507 5499 5489 5483 5469 5460 5446 5433 5421 5413 5406 5400 5387 5375 5369 5367 5372 5382 5404 5430 5457 5482 5508 5524 5543 5556
5543 5536 5528 5519 5515 5507 5499 5489 5478 5468 5456 5444 5426 5413 5400 5387 5378 5364 5348 5343 5342 5344 5345 5346 5360 5385 5420 5450 5479 5509 5533 5552
5539 5532 5522 5515 5508 5499 5490 5480 5468 5453 5441 5425 5407 5393 5377 5358 5346 5331 5322 5326 5329 5327 5327 5326 5336 5352 5375 5420 5467 5502 5527 5543
5534 5526 5518 5510 5501 5491 5481 5470 5457 5441 5426 5408 5392 5375 5353 5334 5319 5312 5312 5315 5318 5319 5316 5318 5326 5334 5359 5408 5464 5506 5514 5535
5530 5523 5514 5502 5490 5479 5467 5456 5446 5430 5413 5396 5378 5359 5334 5316 5304 5304 5307 5308 5310 5311 5311 5316 5323 5332 5352 5394 5442 5490 5503 5528
5527 5518 5507 5494 5480 5470 5458 5448 5436 5421 5403 5387 5366 5344 5320 5304 5296 5295 5298 5302 5305 5309 5309 5314 5322 5335 5350 5378 5415 5440 5465 5516
5522 5512 5500 5487 5474 5464 5451 5440 5426 5409 5394 5375 5355 5333 5310 5297 5292 5292 5295 5299 5303 5305 5309 5315 5323 5336 5354 5373 5395 5417 5445 5482
5517 5509 5495 5480 5468 5458 5446 5431 5415 5401 5385 5368 5347 5320 5301 5293 5291 5292 5295 5298 5303 5306 5313 5321 5328 5338 5353 5373 5393 5410 5430 5453
5513 5504 5494 5480 5466 5453 5440 5424 5409 5395 5379 5361 5335 5309 5297 5295 5292 5293 5296 5300 5306 5311 5317 5325 5332 5341 5354 5369 5386 5404 5421 5442
5510 5501 5492 5477 5463 5450 5436 5419 5405 5390 5374 5354 5329 5308 5298 5296 5295 5295 5298 5302 5308 5314 5321 5328 5335 5345 5353 5367 5383 5396 5411 5431
5505 5498 5486 5473 5460 5446 5432 5416 5400 5385 5368 5348 5323 5305 5299 5296 5295 5296 5300 5305 5311 5317 5324 5330 5337 5346 5356 5368 5380 5393 5407 5423